{"data":{"norad_id":69089,"epoch":"2026-09-20T03:29:32.744832Z","epoch_age_seconds":67870,"freshness":"FRESH","line1":"1 69089U 26104S   26263.14551788  .00000069  00000+0  88766-4 0  9996","line2":"2 69089  88.9907 331.7571 0002014 106.3664 253.7708 13.51027377 17999","mean_motion":13.51027377,"eccentricity":0.0002014,"inclination_deg":88.9907,"raan_deg":331.7571,"arg_perigee_deg":106.3664,"mean_anomaly_deg":253.7708,"bstar":8.8766e-5,"rev_number":1799,"period_min":106.58555292918,"perigee_km":1066.9812366434,"apogee_km":1069.980734368,"semimajor_km":7446.6179855057,"source":"CELESTRAK","updated_at":"2026-09-20T09:00:24.674367Z"}}